Location: Saint-Maurice-d�Ard�che
(44.5216°N, 4.4002°E)
Time: 03:11:02
(UTC+00:00)

H-2A R/B - Pass Details

Date: 30 March 2020
Orbit: 734 x 836 km, 98.2° (Epoch: 02 June)

Event Time Altitude Azimuth Distance (km) Brightness Sun altitude
Rises 18:27:26 0° 142° (SE) 3,337 4.9 -4.3°
Reaches altitude 10° 18:29:55 10° 135° (SE) 2,396 4.1 -4.7°
Maximum altitude 18:34:48 39° 68° (ENE) 1,190 2.6 -5.6°
Drops below altitude 10° 18:39:35 10° 1° (N) 2,351 4.7 -6.4°
Sets 18:42:00 0° 354° (N) 3,267 5.5 -6.8°
